Blue Canyon, CA

3:05 AM PDT on May 27, 2017 (GMT -0700)
Blue Canyon-Nyack

Weather History for KBLU - December, 2013

Change the Weather History Date:

Tuesday, December 3, 2013

  Actual Average Record
Temperature  
Mean Temperature 30 °F -  
Max Temperature 39 °F 47 °F 70 °F (1958)
Min Temperature 21 °F 35 °F 18 °F (1952)
Degree Days  
Heating Degree Days 35    
Moisture  
Dew Point 29 °F    
Average Humidity 93    
Maximum Humidity 100    
Minimum Humidity 63    
Precipitation  
Precipitation 0.37 in - - ()
Sea Level Pressure  
Sea Level Pressure 29.77 in    
Wind  
Wind Speed 10 mph (South)    
Max Wind Speed 22 mph    
Max Gust Speed 33 mph    
Visibility 4 miles    
Events Fog , Rain , Snow    
Averages and records for this station are not official NWS values.
T = Trace of Precipitation, MM = Missing Value Source: NWS Daily Summary

Daily Weather History Graph

Daily Weather History Graph

Search for Another Location

Airport or City:

Trip Planner

Search our weather history database for the weather conditions in past years. The results will help you decide how hot, cold, wet, or windy it might be!

Date:

Astronomy

Dec. 03, 2013 Rise Set
Actual Time 7:05 AM PST 4:39 PM PST
Civil Twilight 6:35 AM PST 5:09 PM PST
Nautical Twilight 6:02 AM PST 5:42 PM PST
Astronomical Twilight 5:30 AM PST 6:15 PM PST
Moon 7:40 AM PST (12/3) 5:48 PM PST (12/3)
Length of Visible Light 10h 33m
Length of Day
9h 34m
New Moon, 1% of the Moon is Illuminated
Dec 3
New Moon
Dec 9
First Quarter
Dec 17
Full
Dec 25
Last Quarter
Jan 1
New

Hourly Weather History & Observations

Time (PST) Temp. Windchill Dew Point Humidity Pressure Visibility Wind Dir Wind Speed Gust Speed Precip Events Conditions
12:52 AM 39.0 °F 32.3 °F 36.0 °F 89% 29.81 in 10.0 mi SSE 10.4 mph 20.7 mph N/A   Overcast
1:24 AM 39.0 °F 31.4 °F 37.0 °F 93% 29.87 in 2.0 mi South 12.7 mph - 0.00 in Rain Light Rain
1:31 AM 39.0 °F 31.8 °F 37.9 °F 96% 29.87 in 1.2 mi SSE 11.5 mph - 0.00 in Rain Light Rain
1:39 AM 39.0 °F 31.4 °F 37.9 °F 96% 29.86 in 0.2 mi South 12.7 mph - 0.00 in Fog , Rain Light Rain
1:52 AM 37.9 °F 30.5 °F 37.9 °F 100% 29.78 in 0.2 mi South 11.5 mph - 0.00 in Fog Fog
2:35 AM 39.0 °F 34.8 °F 39.0 °F 100% 29.87 in 0.2 mi SW 5.8 mph - 0.01 in Fog Fog
2:52 AM 39.0 °F 31.8 °F 39.0 °F 100% 29.77 in 0.2 mi SSE 11.5 mph - 0.02 in Fog , Rain Light Rain
3:37 AM 39.0 °F 32.3 °F 37.9 °F 96% 29.82 in 0.2 mi South 10.4 mph - 0.01 in Fog Fog
3:52 AM 39.0 °F 32.8 °F 39.0 °F 100% 29.75 in 0.2 mi South 9.2 mph - 0.01 in Fog , Rain Light Rain
4:29 AM 39.0 °F 32.3 °F 37.9 °F 96% 29.81 in 0.2 mi South 10.4 mph - 0.00 in Fog Fog
4:52 AM 37.9 °F 29.6 °F 37.9 °F 100% 29.72 in 0.2 mi SSW 13.8 mph 25.3 mph 0.00 in Fog , Rain Light Rain
4:59 AM 37.9 °F 30.9 °F 37.0 °F 97% 29.79 in 1.2 mi South 10.4 mph - 0.00 in Rain Light Rain
5:12 AM 37.0 °F 30.4 °F 36.0 °F 96% 29.78 in 2.0 mi SSW 9.2 mph 24.2 mph 0.00 in Rain Light Rain
5:20 AM 37.0 °F 31.6 °F 37.0 °F 100% 29.78 in 10.0 mi SW 6.9 mph - 0.00 in   Overcast
5:26 AM 37.9 °F 31.5 °F 37.0 °F 97% 29.78 in 2.0 mi South 9.2 mph 18.4 mph 0.00 in Rain Light Rain
5:29 AM 37.9 °F 31.5 °F 37.0 °F 97% 29.77 in 0.8 mi South 9.2 mph 18.4 mph 0.00 in Rain Light Rain
5:52 AM 37.9 °F 30.0 °F 37.9 °F 100% 29.70 in 0.2 mi South 12.7 mph 18.4 mph 0.01 in Fog , Rain Light Rain
6:52 AM 36.0 °F 24.7 °F 36.0 °F 100% 29.70 in 0.2 mi South 21.9 mph 33.4 mph 0.03 in Fog , Rain Light Rain
7:39 AM 34.0 °F 23.4 °F 34.0 °F 100% 29.77 in 0.5 mi South 17.3 mph 23.0 mph 0.07 in Fog , Rain Rain
7:52 AM 33.1 °F 22.6 °F 33.1 °F 100% 29.74 in 0.5 mi South 16.1 mph 25.3 mph 0.12 in Fog , Rain Heavy Rain
8:01 AM 33.1 °F 21.5 °F 33.1 °F 100% 29.77 in 0.2 mi South 19.6 mph 25.3 mph 0.02 in Fog , Rain Rain
8:52 AM 33.1 °F 23.9 °F 33.1 °F 100% 29.75 in 0.2 mi South 12.7 mph 23.0 mph 0.06 in Fog , Rain Light Rain
9:18 AM 33.1 °F 22.2 °F 33.1 °F 100% 29.77 in 0.2 mi South 17.3 mph - 0.02 in Fog Fog
9:52 AM 32.0 °F 23.6 °F 32.0 °F 100% 29.76 in 0.2 mi SSW 10.4 mph - 0.07 in Fog , Rain Light Freezing Rain
10:03 AM 32.0 °F 24.2 °F 32.0 °F 100% 29.77 in 0.2 mi SSW 9.2 mph - 0.02 in Fog , Rain Light Freezing Rain
10:18 AM 32.0 °F 23.6 °F 32.0 °F 100% 29.77 in 0.2 mi SW 10.4 mph 18.4 mph 0.02 in Fog , Rain Light Freezing Rain
10:28 AM 30.9 °F 23.5 °F 30.9 °F 100% 29.77 in 0.5 mi SW 8.1 mph - 0.02 in Fog Light Freezing Fog
10:31 AM 30.9 °F 22.8 °F 30.9 °F 100% 29.77 in 1.5 mi SSW 9.2 mph - 0.02 in   Overcast
10:34 AM 30.9 °F 22.2 °F 30.9 °F 100% 29.77 in 0.8 mi SW 10.4 mph 16.1 mph 0.02 in   Mist
10:43 AM 30.9 °F 24.3 °F 30.9 °F 100% 29.77 in 0.2 mi Variable 6.9 mph - 0.02 in Fog Light Freezing Fog
10:52 AM 30.9 °F 23.5 °F 30.0 °F 96% 29.76 in 1.2 mi SW 8.1 mph - 0.02 in   Overcast
10:54 AM 30.9 °F 25.2 °F 30.0 °F 96% 29.77 in 2.5 mi SW 5.8 mph - N/A   Overcast
11:01 AM 30.9 °F 24.3 °F 30.0 °F 96% 29.77 in 5.0 mi SSW 6.9 mph - N/A   Overcast
11:19 AM 30.0 °F 24.1 °F 28.9 °F 96% 29.76 in 6.0 mi SSW 5.8 mph - N/A   Overcast
11:27 AM 30.0 °F 24.1 °F 28.9 °F 96% 29.75 in 9.0 mi SSW 5.8 mph - N/A   Overcast
11:52 AM 30.0 °F 24.1 °F 30.0 °F 100% 29.73 in 8.0 mi SSE 5.8 mph - N/A   Overcast
11:59 AM 30.9 °F 25.2 °F 30.0 °F 96% 29.74 in 4.0 mi South 5.8 mph - N/A   Overcast
12:52 PM 30.0 °F 23.2 °F 28.9 °F 96% 29.71 in 10.0 mi South 6.9 mph - N/A   Overcast
1:01 PM 30.0 °F 21.7 °F 28.0 °F 92% 29.72 in 6.0 mi South 9.2 mph - 0.00 in Snow Light Snow
1:07 PM 30.0 °F 21.7 °F 28.9 °F 96% 29.72 in 1.8 mi South 9.2 mph - 0.00 in Snow Light Snow
1:11 PM 30.0 °F 21.7 °F 28.9 °F 96% 29.72 in 0.8 mi South 9.2 mph - 0.01 in Snow Light Snow
1:29 PM 30.0 °F 22.4 °F 28.9 °F 96% 29.71 in 1.5 mi SSW 8.1 mph - 0.03 in Snow Light Snow
1:32 PM 30.0 °F 22.4 °F 28.9 °F 96% 29.71 in 4.0 mi SSW 8.1 mph 16.1 mph 0.03 in   Overcast
1:52 PM 28.9 °F 21.9 °F 27.0 °F 92% 29.72 in 10.0 mi WSW 6.9 mph - 0.03 in   Mostly Cloudy
2:09 PM 28.9 °F 22.8 °F 28.0 °F 96% 29.72 in 7.0 mi Variable 5.8 mph - N/A   Mostly Cloudy
2:16 PM 28.9 °F 21.9 °F 27.0 °F 92% 29.73 in 2.5 mi Variable 6.9 mph - N/A   Mostly Cloudy
2:25 PM 28.9 °F 21.9 °F 28.0 °F 96% 29.74 in 2.0 mi West 6.9 mph - N/A   Overcast
2:32 PM 28.0 °F 24.2 °F 26.1 °F 92% 29.74 in 10.0 mi WNW 3.5 mph - N/A   Overcast
2:43 PM 26.1 °F - 24.1 °F 92% 29.74 in 8.0 mi North - - N/A   Overcast
2:52 PM 25.0 °F 16.3 °F 21.9 °F 88% 29.77 in 5.0 mi NE 8.1 mph 20.7 mph 0.00 in Snow Light Snow
3:02 PM 24.1 °F 11.5 °F 19.9 °F 84% 29.75 in 7.0 mi NE 15.0 mph 28.8 mph 0.00 in   Overcast
3:52 PM 23.0 °F 14.7 °F 19.0 °F 85% 29.79 in 10.0 mi Variable 6.9 mph - 0.00 in   Mostly Cloudy
4:52 PM 23.0 °F 15.8 °F 18.0 °F 81% 29.78 in 10.0 mi ENE 5.8 mph - N/A   Clear
5:52 PM 21.0 °F 10.6 °F 12.9 °F 71% 29.80 in 10.0 mi NE 9.2 mph 18.4 mph N/A   Clear
6:52 PM 21.0 °F 9.3 °F 12.9 °F 71% 29.82 in 10.0 mi ENE 11.5 mph 20.7 mph N/A   Clear
7:52 PM 21.9 °F 11.0 °F 10.9 °F 63% 29.82 in 10.0 mi ENE 10.4 mph 21.9 mph N/A   Clear
8:52 PM 21.0 °F 11.4 °F 10.9 °F 65% 29.84 in 10.0 mi ENE 8.1 mph 18.4 mph N/A   Clear
9:52 PM 21.0 °F 11.4 °F 10.9 °F 65% 29.84 in 10.0 mi ENE 8.1 mph 17.3 mph N/A   Clear
10:52 PM 21.0 °F 10.6 °F 10.0 °F 63% 29.86 in 10.0 mi ENE 9.2 mph 18.4 mph N/A   Clear
11:52 PM 21.0 °F 10.6 °F 10.0 °F 63% 29.86 in 10.0 mi ENE 9.2 mph 19.6 mph N/A   Clear